| time (UTC) | temp C | wind direction | speed KPH | gust KPH | rain 1hr cm | rain 24hr cm | rain mn cm | humidity % | barometer mb |
| 20260504081915 | 8 | 68 | 1.6 | 1.6 | 0.00 | 0.00 | 0.00 | 62 | 1015.3 |
| 20260504081412 | 8 | 69 | 0.0 | 3.2 | 0.00 | 0.00 | 0.00 | 60 | 1015.2 |
| 20260504080908 | 8 | 67 | 1.6 | 4.8 | 0.00 | 0.00 | 0.00 | 61 | 1015.3 |
| 20260504080405 | 8 | 67 | 1.6 | 4.8 | 0.00 | 0.00 | 0.00 | 61 | 1015.3 |
| 20260504070332 | 7 | 89 | 0.0 | 0.0 | 0.00 | 0.00 | 0.00 | 63 | 1015.5 |
| 20260504050721 | 5 | 12 | 0.0 | 1.6 | 0.00 | 0.00 | 0.00 | 70 | 1016.3 |
| 20260504050218 | 5 | 10 | 1.6 | 3.2 | 0.00 | 0.00 | 0.00 | 70 | 1016.1 |
| 20260504045715 | 6 | 6 | 1.6 | 1.6 | 0.00 | 0.00 | 0.00 | 69 | 1016.1 |
| 20260504045215 | 6 | 344 | 1.6 | 3.2 | 0.00 | 0.00 | 0.00 | 67 | 1016.1 |
| 20260504044713 | 7 | 16 | 4.8 | 6.4 | 0.00 | 0.00 | 0.00 | 65 | 1016.2 |
| 20260504044210 | 9 | 63 | 1.6 | 1.6 | 0.00 | 0.00 | 0.00 | 50 | 1016.2 |
| 20260504043707 | 9 | 61 | 0.0 | 0.0 | 0.00 | 0.00 | 0.00 | 49 | 1016.2 |
| 20260504043204 | 9 | 95 | 0.0 | 1.6 | 0.00 | 0.00 | 0.00 | 48 | 1016.1 |
| 20260504042701 | 10 | 88 | 1.6 | 3.2 | 0.00 | 0.00 | 0.00 | 48 | 1016.0 |
| 20260504042158 | 10 | 110 | 1.6 | 4.8 | 0.00 | 0.00 | 0.00 | 48 | 1016.2 |
| 20260504041654 | 10 | 123 | 1.6 | 3.2 | 0.00 | 0.00 | 0.00 | 48 | 1015.9 |
| 20260504041149 | 10 | 117 | 1.6 | 3.2 | 0.00 | 0.00 | 0.00 | 48 | 1016.0 |
| 20260504040647 | 9 | 95 | 1.6 | 3.2 | 0.00 | 0.00 | 0.00 | 49 | 1016.1 |
| 20260504040144 | 9 | 106 | 1.6 | 1.6 | 0.00 | 0.00 | 0.00 | 49 | 1016.0 |
| 20260504035640 | 8 | 76 | 0.0 | 1.6 | 0.00 | 0.00 | 0.00 | 52 | 1016.0 |
| 20260504035137 | 8 | 92 | 0.0 | 3.2 | 0.00 | 0.00 | 0.00 | 53 | 1016.1 |
| 20260504034635 | 8 | 55 | 1.6 | 3.2 | 0.00 | 0.00 | 0.00 | 54 | 1015.8 |
| 20260504034132 | 8 | 38 | 1.6 | 1.6 | 0.00 | 0.00 | 0.00 | 55 | 1015.9 |
| 20260504033630 | 8 | 34 | 1.6 | 1.6 | 0.00 | 0.00 | 0.00 | 54 | 1016.1 |
| 20260504033127 | 9 | 49 | 1.6 | 1.6 | 0.00 | 0.00 | 0.00 | 49 | 1016.0 |
| 20260504032623 | 9 | 102 | 0.0 | 1.6 | 0.00 | 0.00 | 0.00 | 48 | 1016.1 |
| 20260504032120 | 10 | 86 | 1.6 | 1.6 | 0.00 | 0.00 | 0.00 | 48 | 1015.9 |
| 20260504031618 | 10 | 69 | 0.0 | 3.2 | 0.00 | 0.00 | 0.00 | 48 | 1016.0 |
| 20260504031114 | 10 | 109 | 3.2 | 4.8 | 0.00 | 0.00 | 0.00 | 47 | 1015.8 |
| 20260504030611 | 10 | 106 | 0.0 | 3.2 | 0.00 | 0.00 | 0.00 | 48 | 1015.8 |
| 20260504030108 | 9 | 111 | 0.0 | 1.6 | 0.00 | 0.00 | 0.00 | 49 | 1015.7 |
| 20260504025604 | 9 | 61 | 0.0 | 1.6 | 0.00 | 0.00 | 0.00 | 49 | 1015.8 |
| 20260504025101 | 10 | 97 | 0.0 | 1.6 | 0.00 | 0.00 | 0.00 | 49 | 1015.8 |
| 20260504024558 | 10 | 50 | 1.6 | 3.2 | 0.00 | 0.00 | 0.00 | 47 | 1015.6 |
| 20260504024055 | 9 | 26 | 1.6 | 1.6 | 0.00 | 0.00 | 0.00 | 50 | 1015.7 |
| 20260504023551 | 10 | 23 | 1.6 | 1.6 | 0.00 | 0.00 | 0.00 | 48 | 1015.7 |
| 20260504023047 | 10 | 54 | 1.6 | 3.2 | 0.00 | 0.00 | 0.00 | 47 | 1015.5 |
| 20260504022543 | 10 | 57 | 0.0 | 1.6 | 0.00 | 0.00 | 0.00 | 46 | 1015.5 |
| 20260504022040 | 10 | 153 | 0.0 | 0.0 | 0.00 | 0.00 | 0.00 | 49 | 1015.3 |
| 20260504021538 | 10 | 228 | 0.0 | 0.0 | 0.00 | 0.00 | 0.00 | 52 | 1015.4 |
| 20260504021034 | 11 | 140 | 0.0 | 0.0 | 0.00 | 0.00 | 0.00 | 46 | 1015.5 |
| 20260504020531 | 11 | 132 | 0.0 | 0.0 | 0.00 | 0.00 | 0.00 | 45 | 1015.4 |
| 20260504020028 | 11 | 133 | 0.0 | 0.0 | 0.00 | 0.00 | 0.00 | 45 | 1015.3 |
| 20260504015524 | 11 | 120 | 0.0 | 0.0 | 0.00 | 0.00 | 0.00 | 44 | 1015.4 |
| 20260504015020 | 11 | 65 | 0.0 | 0.0 | 0.00 | 0.00 | 0.00 | 44 | 1015.4 |
| 20260504014516 | 11 | 70 | 0.0 | 0.0 | 0.00 | 0.00 | 0.00 | 43 | 1015.3 |
| 20260504014014 | 11 | 117 | 0.0 | 0.0 | 0.00 | 0.00 | 0.00 | 44 | 1015.3 |
| 20260504013512 | 11 | 130 | 0.0 | 0.0 | 0.00 | 0.00 | 0.00 | 43 | 1015.3 |
| 20260504013008 | 11 | 100 | 0.0 | 0.0 | 0.00 | 0.00 | 0.00 | 44 | 1015.2 |
| 20260504012506 | 11 | 61 | 0.0 | 1.6 | 0.00 | 0.00 | 0.00 | 43 | 1015.3 |
| 20260504012003 | 11 | 135 | 0.0 | 1.6 | 0.00 | 0.00 | 0.00 | 43 | 1015.2 |
| 20260504011459 | 11 | 106 | 0.0 | 0.0 | 0.00 | 0.00 | 0.00 | 44 | 1015.1 |
| 20260504010955 | 11 | 89 | 0.0 | 0.0 | 0.00 | 0.00 | 0.00 | 43 | 1015.0 |
| 20260504010452 | 11 | 60 | 0.0 | 0.0 | 0.00 | 0.00 | 0.00 | 43 | 1015.0 |
| 20260504005947 | 11 | 57 | 0.0 | 0.0 | 0.00 | 0.00 | 0.00 | 44 | 1015.1 |
| 20260504005445 | 11 | 68 | 0.0 | 0.0 | 0.00 | 0.00 | 0.00 | 44 | 1015.1 |
| 20260504004942 | 11 | 85 | 0.0 | 0.0 | 0.00 | 0.00 | 0.00 | 43 | 1015.2 |
| 20260504004439 | 11 | 91 | 0.0 | 0.0 | 0.00 | 0.00 | 0.00 | 42 | 1015.2 |
| 20260504003937 | 12 | 55 | 0.0 | 3.2 | 0.00 | 0.00 | 0.00 | 41 | 1015.0 |
| 20260504003433 | 12 | 104 | 1.6 | 3.2 | 0.00 | 0.00 | 0.00 | 39 | 1015.2 |
| 20260504002929 | 12 | 135 | 0.0 | 0.0 | 0.00 | 0.00 | 0.00 | 40 | 1015.1 |
| 20260504002426 | 12 | 59 | 0.0 | 0.0 | 0.00 | 0.00 | 0.00 | 40 | 1014.9 |
| 20260504001924 | 13 | 115 | 0.0 | 3.2 | 0.00 | 0.00 | 0.00 | 38 | 1015.0 |
| 20260504001421 | 13 | 136 | 0.0 | 3.2 | 0.00 | 0.00 | 0.00 | 37 | 1015.0 |
| 20260504000918 | 13 | 117 | 1.6 | 3.2 | 0.00 | 0.00 | 0.00 | 37 | 1015.1 |
| 20260504000416 | 13 | 106 | 1.6 | 3.2 | 0.00 | 0.00 | 0.00 | 37 | 1015.0 |
| 20260503235912 | 13 | 135 | 3.2 | 3.2 | 0.00 | 0.00 | 0.00 | 37 | 1014.7 |
| 20260503235410 | 13 | 133 | 3.2 | 4.8 | 0.00 | 0.00 | 0.00 | 38 | 1014.8 |
| 20260503234908 | 14 | 166 | 1.6 | 4.8 | 0.00 | 0.00 | 0.00 | 38 | 1014.8 |
| 20260503234405 | 14 | 125 | 3.2 | 3.2 | 0.00 | 0.00 | 0.00 | 37 | 1014.6 |
| 20260503233902 | 15 | 135 | 4.8 | 4.8 | 0.00 | 0.00 | 0.00 | 36 | 1014.8 |
| 20260503233359 | 15 | 145 | 3.2 | 6.4 | 0.00 | 0.00 | 0.00 | 35 | 1014.7 |
| 20260503232855 | 15 | 153 | 6.4 | 6.4 | 0.00 | 0.00 | 0.00 | 35 | 1014.8 |
| 20260503232352 | 15 | 115 | 6.4 | 11.3 | 0.00 | 0.00 | 0.00 | 34 | 1014.7 |
| 20260503231850 | 15 | 124 | 11.3 | 24.1 | 0.00 | 0.00 | 0.00 | 33 | 1014.6 |
| 20260503231347 | 15 | 104 | 8.0 | 12.9 | 0.00 | 0.00 | 0.00 | 33 | 1014.9 |
| 20260503230843 | 16 | 254 | 3.2 | 6.4 | 0.00 | 0.00 | 0.00 | 34 | 1014.7 |
| 20260503230340 | 16 | 149 | 3.2 | 9.7 | 0.00 | 0.00 | 0.00 | 34 | 1014.7 |
| 20260503225838 | 16 | 141 | 4.8 | 14.5 | 0.00 | 0.00 | 0.00 | 33 | 1014.7 |
| 20260503225333 | 16 | 145 | 4.8 | 6.4 | 0.00 | 0.00 | 0.00 | 33 | 1014.7 |
| 20260503224830 | 16 | 106 | 11.3 | 14.5 | 0.00 | 0.00 | 0.00 | 32 | 1014.6 |
| 20260503224327 | 16 | 173 | 6.4 | 6.4 | 0.00 | 0.00 | 0.00 | 33 | 1014.4 |
| 20260503223825 | 16 | 250 | 6.4 | 9.7 | 0.00 | 0.00 | 0.00 | 33 | 1014.4 |
| 20260503223323 | 16 | 137 | 3.2 | 4.8 | 0.00 | 0.00 | 0.00 | 32 | 1014.5 |
| 20260503222818 | 16 | 210 | 6.4 | 6.4 | 0.00 | 0.00 | 0.00 | 32 | 1014.4 |
| 20260503222317 | 16 | 225 | 4.8 | 12.9 | 0.00 | 0.00 | 0.00 | 34 | 1014.6 |
| 20260503221814 | 16 | 137 | 12.9 | 24.1 | 0.00 | 0.00 | 0.00 | 31 | 1014.6 |
| 20260503221313 | 17 | 120 | 8.0 | 11.3 | 0.00 | 0.00 | 0.00 | 32 | 1014.8 |
| 20260503220808 | 16 | 233 | 14.5 | 14.5 | 0.00 | 0.00 | 0.00 | 32 | 1014.7 |
| 20260503220306 | 16 | 143 | 9.7 | 17.7 | 0.00 | 0.00 | 0.00 | 31 | 1014.8 |
| 20260503215802 | 17 | 201 | 9.7 | 12.9 | 0.00 | 0.00 | 0.00 | 31 | 1014.7 |
| 20260503215259 | 16 | 158 | 6.4 | 14.5 | 0.00 | 0.00 | 0.00 | 30 | 1014.9 |
| 20260503214757 | 16 | 129 | 6.4 | 11.3 | 0.00 | 0.00 | 0.00 | 30 | 1014.8 |
| 20260503214254 | 16 | 214 | 12.9 | 20.9 | 0.00 | 0.00 | 0.00 | 33 | 1014.7 |
| 20260503213752 | 16 | 208 | 17.7 | 22.5 | 0.00 | 0.00 | 0.00 | 33 | 1014.7 |
| 20260503213249 | 17 | 198 | 9.7 | 16.1 | 0.00 | 0.00 | 0.00 | 30 | 1015.0 |
| 20260503212746 | 16 | 190 | 11.3 | 20.9 | 0.00 | 0.00 | 0.00 | 31 | 1014.7 |
| 20260503212243 | 17 | 209 | 8.0 | 11.3 | 0.00 | 0.00 | 0.00 | 31 | 1014.9 |
| 20260503211741 | 16 | 214 | 11.3 | 16.1 | 0.00 | 0.00 | 0.00 | 32 | 1014.8 |
| 20260503211237 | 16 | 195 | 9.7 | 11.3 | 0.00 | 0.00 | 0.00 | 32 | 1014.8 |
| 20260503210732 | 16 | 226 | 17.7 | 24.1 | 0.00 | 0.00 | 0.00 | 31 | 1014.9 |
| 20260503210230 | 16 | 232 | 9.7 | 14.5 | 0.00 | 0.00 | 0.00 | 32 | 1014.8 |
| 20260503205725 | 17 | 202 | 9.7 | 17.7 | 0.00 | 0.00 | 0.00 | 31 | 1014.7 |
| 20260503205221 | 16 | 166 | 9.7 | 25.7 | 0.00 | 0.00 | 0.00 | 31 | 1014.9 |
| 20260503204718 | 17 | 161 | 4.8 | 11.3 | 0.00 | 0.00 | 0.00 | 33 | 1014.7 |
| 20260503204216 | 16 | 145 | 8.0 | 16.1 | 0.00 | 0.00 | 0.00 | 31 | 1014.7 |
| 20260503203713 | 16 | 181 | 6.4 | 17.7 | 0.00 | 0.00 | 0.00 | 31 | 1014.8 |
| 20260503203210 | 16 | 208 | 12.9 | 27.4 | 0.00 | 0.00 | 0.00 | 33 | 1014.8 |
| 20260503202708 | 16 | 134 | 4.8 | 9.7 | 0.00 | 0.00 | 0.00 | 31 | 1015.0 |
| 20260503202205 | 16 | 189 | 6.4 | 9.7 | 0.00 | 0.00 | 0.00 | 32 | 1015.0 |
| 20260503201703 | 16 | 125 | 11.3 | 20.9 | 0.00 | 0.00 | 0.00 | 31 | 1015.1 |
| 20260503201200 | 16 | 270 | 9.7 | 17.7 | 0.00 | 0.00 | 0.00 | 31 | 1015.0 |
| 20260503200656 | 16 | 106 | 8.0 | 16.1 | 0.00 | 0.00 | 0.00 | 32 | 1015.0 |
| 20260503200153 | 16 | 112 | 6.4 | 17.7 | 0.00 | 0.00 | 0.00 | 31 | 1015.0 |
| 20260503195650 | 15 | 201 | 9.7 | 14.5 | 0.00 | 0.00 | 0.00 | 31 | 1015.5 |
| 20260503195147 | 15 | 220 | 17.7 | 22.5 | 0.00 | 0.00 | 0.00 | 32 | 1015.3 |
| 20260503194644 | 15 | 203 | 14.5 | 20.9 | 0.00 | 0.00 | 0.00 | 32 | 1015.6 |
| 20260503194139 | 16 | 256 | 6.4 | 22.5 | 0.00 | 0.00 | 0.00 | 32 | 1015.5 |
| 20260503193636 | 16 | 195 | 11.3 | 24.1 | 0.00 | 0.00 | 0.00 | 34 | 1015.5 |
| 20260503193132 | 16 | 182 | 14.5 | 20.9 | 0.00 | 0.00 | 0.00 | 33 | 1015.5 |
| 20260503192627 | 16 | 116 | 11.3 | 17.7 | 0.00 | 0.00 | 0.00 | 31 | 1015.7 |
| 20260503192123 | 15 | 231 | 8.0 | 11.3 | 0.00 | 0.00 | 0.00 | 33 | 1015.7 |
| 20260503191621 | 15 | 150 | 16.1 | 22.5 | 0.00 | 0.00 | 0.00 | 32 | 1015.8 |
| 20260503191118 | 16 | 224 | 4.8 | 9.7 | 0.00 | 0.00 | 0.00 | 36 | 1016.0 |
| 20260503190615 | 16 | 176 | 4.8 | 11.3 | 0.00 | 0.00 | 0.00 | 32 | 1015.9 |
| 20260503190111 | 15 | 92 | 6.4 | 9.7 | 0.00 | 0.00 | 0.00 | 31 | 1016.1 |
| 20260503185608 | 15 | 200 | 12.9 | 20.9 | 0.00 | 0.00 | 0.00 | 33 | 1016.1 |
| 20260503185108 | 16 | 205 | 14.5 | 16.1 | 0.00 | 0.00 | 0.00 | 31 | 1016.1 |
| 20260503184603 | 15 | 157 | 11.3 | 17.7 | 0.00 | 0.00 | 0.00 | 32 | 1016.1 |
| 20260503184100 | 15 | 245 | 11.3 | 17.7 | 0.00 | 0.00 | 0.00 | 32 | 1016.2 |
| 20260503183557 | 15 | 184 | 16.1 | 17.7 | 0.00 | 0.00 | 0.00 | 32 | 1016.3 |
| 20260503183054 | 14 | 221 | 9.7 | 22.5 | 0.00 | 0.00 | 0.00 | 33 | 1016.3 |
| 20260503182552 | 15 | 169 | 6.4 | 16.1 | 0.00 | 0.00 | 0.00 | 34 | 1016.3 |
| 20260503182050 | 14 | 175 | 9.7 | 12.9 | 0.00 | 0.00 | 0.00 | 35 | 1016.3 |
| 20260503181547 | 13 | 237 | 9.7 | 16.1 | 0.00 | 0.00 | 0.00 | 37 | 1016.5 |
| 20260503181043 | 14 | 219 | 8.0 | 20.9 | 0.00 | 0.00 | 0.00 | 33 | 1016.6 |
| 20260503180540 | 14 | 159 | 14.5 | 24.1 | 0.00 | 0.00 | 0.00 | 35 | 1016.8 |
| 20260503180038 | 14 | 132 | 9.7 | 24.1 | 0.00 | 0.00 | 0.00 | 34 | 1016.8 |
| 20260503175535 | 14 | 200 | 8.0 | 16.1 | 0.00 | 0.00 | 0.00 | 34 | 1016.7 |
| 20260503175032 | 13 | 182 | 17.7 | 25.7 | 0.00 | 0.00 | 0.00 | 38 | 1016.8 |
| 20260503174530 | 13 | 187 | 4.8 | 11.3 | 0.00 | 0.00 | 0.00 | 35 | 1016.9 |
| 20260503174026 | 13 | 193 | 11.3 | 14.5 | 0.00 | 0.00 | 0.00 | 36 | 1016.8 |
| 20260503173520 | 13 | 107 | 6.4 | 22.5 | 0.00 | 0.00 | 0.00 | 38 | 1017.1 |
| 20260503173017 | 12 | 127 | 9.7 | 24.1 | 0.00 | 0.00 | 0.00 | 38 | 1017.0 |
| 20260503172515 | 13 | 98 | 11.3 | 20.9 | 0.00 | 0.00 | 0.00 | 37 | 1016.9 |
| 20260503172012 | 13 | 135 | 9.7 | 16.1 | 0.00 | 0.00 | 0.00 | 38 | 1017.2 |
| 20260503171508 | 13 | 145 | 6.4 | 11.3 | 0.00 | 0.00 | 0.00 | 36 | 1017.1 |
| 20260503171006 | 13 | 210 | 12.9 | 20.9 | 0.00 | 0.00 | 0.00 | 39 | 1017.2 |
| 20260503170502 | 13 | 212 | 19.3 | 35.4 | 0.00 | 0.00 | 0.00 | 39 | 1017.2 |
| 20260503150854 | 10 | 165 | 8.0 | 20.9 | 0.00 | 0.00 | 0.00 | 48 | 1018.3 |
| 20260503150350 | 11 | 222 | 6.4 | 17.7 | 0.00 | 0.00 | 0.00 | 47 | 1018.2 |
| 20260503140315 | 9 | 153 | 6.4 | 16.1 | 0.00 | 0.00 | 0.00 | 52 | 1018.3 |
| 20260503131244 | 8 | 190 | 12.9 | 17.7 | 0.00 | 0.00 | 0.00 | 55 | 1018.7 |
| 20260503130742 | 7 | 240 | 9.7 | 16.1 | 0.00 | 0.00 | 0.00 | 56 | 1018.8 |
| 20260503130239 | 7 | 240 | 17.7 | 22.5 | 0.00 | 0.00 | 0.00 | 57 | 1018.6 |
| 20260503120205 | 6 | 196 | 12.9 | 17.7 | 0.00 | 0.00 | 0.00 | 61 | 1018.1 |
| 20260503110632 | 4 | 230 | 3.2 | 9.7 | 0.00 | 0.00 | 0.00 | 67 | 1017.3 |
| 20260503110130 | 4 | 199 | 3.2 | 6.4 | 0.00 | 0.00 | 0.00 | 68 | 1017.3 |